RH
80 83 87 86 83 89 98 96 84 93 92 93 92 87 70 84 54 88 64 93 73 37 33 32 34 39 39 35 36 35 32 33 31 24 18 13 15 65 69 66 94 94 96 80
77 80 82 89 93 98 99 90 69 42 57 81 74 73 82 78 77 80 93 87 58 48 35 34 32 38 50 54 45 36 32 38 28 52 51 81 72 72 50 55 59 80 92 66
83 93 96 100 96 85 84 86 83 64 51 64 52 69 84 76 80 83 50 68 81 79 51 39 36 51 60 58 51 43 36 38 31 30 24 32 35 40 32 28 77 54 44 54
94 100 98 91 79 64 97 52 39 45 23 69 54 68 56 60 64 64 82 51 43 45 36 39 48 52 57 60 55 53 45 50 57 54 48 60 62 31 12 16 18 63 18 22
97 99 96 63 28 54 93 63 47 65 50 60 58 67 60 69 73 58 44 38 48 48 41 43 50 52 54 52 44 39 45 47 56 55 39 44 46 22 25 38 78 90 34 46
98 96 76 37 79 96 95 75 35 48 53 64 69 61 62 57 49 50 49 44 42 43 40 41 33 26 24 27 26 27 29 32 45 48 68 50 28 22 42 84 89 76 100 63
73 74 82 85 75 50 91 94 75 62 60 52 67 68 67 57 56 49 57 53 45 33 25 21 13 16 14 17 31 38 43 50 56 59 49 60 37 73 76 76 80 98 92 86
46 31 20 15 25 85 93 58 71 49 69 82 77 71 60 61 62 56 45 37 33 32 21 43 61 68 68 75 79 81 86 84 73 66 85 52 55 67 84 90 87 96 100 89
58 71 63 29 78 90 65 46 88 77 66 68 66 69 68 58 52 36 34 40 35 26 54 56 63 72 77 83 90 84 92 100 95 98 96 99 85 88 86 89 99 96 96 96
34 38 67 62 18 15 20 60 91 80 68 66 71 70 60 43 32 32 34 30 41 31 52 49 57 74 84 86 89 97 94 98 98 96 96 84 91 88 88 98 95 96 96 96
88 84 49 12 16 38 29 35 76 70 55 66 72 50 43 31 20 14 20 35 36 42 40 41 53 74 88 89 92 99 96 97 97 97 95 95 91 95 94 95 96 96 96 97
18 12 18 30 12 11 12 22 46 66 68 63 56 31 31 25 16 17 20 22 30 33 26 29 50 74 84 84 95 98 95 97 95 95 95 94 96 96 95 96 96 96 96 96
14 16 27 12 11 10 12 24 40 64 66 56 44 25 24 18 13 16 14 12 14 23 24 26 49 69 77 88 90 86 94 97 97 94 95 95 95 96 96 96 96 96 96 98
27 81 14 12 10 10 14 23 29 58 58 53 49 38 22 22 22 21 21 19 20 17 18 18 35 60 74 90 87 93 79 94 96 94 93 94 95 95 95 96 96 97 98 97
48 20 13 12 11 15 18 18 26 43 29 30 29 23 23 25 29 32 35 33 34 32 21 19 20 30 73 77 80 90 70 76 84 89 86 94 95 95 95 96 96 96 94 94
67 29 13 12 12 18 18 24 34 22 23 18 28 36 32 36 35 34 40 39 44 41 37 27 23 24 58 75 79 84 63 81 89 90 89 92 97 97 96 93 92 92 92 93
67 49 21 13 12 16 21 23 21 23 27 22 35 56 58 56 53 50 50 52 49 46 51 46 33 26 39 65 79 82 71 65 86 89 93 95 95 96 96 96 91 84 81 77
66 51 34 13 13 17 18 20 23 28 38 38 36 51 62 55 56 53 55 44 45 51 56 62 48 41 61 65 77 80 80 79 72 89 92 95 93 96 94 92 88 79 74 74
54 43 28 15 14 14 16 18 27 30 40 34 30 37 52 59 62 60 59 50 60 68 67 69 68 54 56 69 83 89 86 88 82 91 96 96 94 96 96 92 80 74 75 72
53 29 26 18 16 15 17 26 30 35 39 35 33 41 48 61 67 69 52 67 74 68 67 67 71 57 40 82 86 79 79 82 89 96 92 89 93 92 94 83 80 74 72 74
47 28 19 15 16 24 36 44 48 50 47 46 54 57 57 66 72 70 60 74 91 85 83 73 75 43 36 53 66 64 69 84 93 94 94 93 90 90 85 84 76 73 72 74
40 25 16 16 29 31 44 45 56 58 63 62 59 57 60 67 71 66 69 87 95 95 98 90 93 80 71 67 62 61 73 86 95 93 93 95 94 84 79 79 76 73 71 66
34 22 28 33 55 54 58 60 64 65 72 68 64 62 67 74 73 66 77 90 96 81 97 90 74 84 79 73 69 74 84 92 94 93 92 88 81 79 80 78 74 66 52 34
49 54 45 66 66 66 72 71 69 74 80 82 68 68 80 80 81 78 64 67 78 88 87 84 84 77 75 74 77 81 80 79 78 77 77 78 78 76 72 61 38 22 19 18
85 72 82 87 83 86 83 74 75 75 74 78 78 83 87 71 74 73 73 76 90 98 90 87 85 77 77 80 81 76 75 71 68 71 68 70 70 54 30 19 19 20 19 18
86 94 99 96 91 83 78 83 84 81 84 78 70 69 60 59 57 77 90 95 85 66 74 68 66 70 72 78 76 76 73 63 63 71 71 51 27 20 20 21 21 20 18 18
90 92 90 90 82 74 66 63 79 82 81 77 68 51 70 75 76 81 90 90 79 68 68 66 59 53 61 72 75 73 66 72 75 63 33 21 21 22 23 21 21 19 17 14
Wind_Speed
18 17 18 18 19 18 18 17 13 15 17 16 18 16 16 10 7 18 2 7 3 5 11 12 10 11 9 11 12 6 7 4 5 6 11 12 11 5 7 6 3 4 3 7
16 15 16 15 15 18 21 20 14 20 21 17 18 15 14 14 7 5 8 8 6 9 8 2 6 11 11 9 8 4 3 3 6 4 5 6 3 6 3 5 7 12 3 8
14 14 15 18 22 24 24 19 16 24 22 16 19 19 12 13 8 7 7 4 6 9 11 16 15 13 11 9 7 6 5 3 4 5 4 8 11 11 10 10 8 15 29 35
16 18 22 30 27 25 21 16 11 19 23 19 21 19 17 14 10 8 10 12 13 14 14 14 13 14 12 8 7 8 7 3 5 8 10 13 14 14 14 20 27 20 38 36
18 22 33 26 22 25 23 15 13 20 17 22 19 18 13 15 15 14 14 11 12 11 11 12 13 13 12 11 10 9 9 6 10 14 15 15 19 21 23 22 20 28 37 40
21 30 24 26 27 26 22 16 18 20 17 16 17 19 17 14 11 8 8 9 9 9 8 9 9 10 11 11 10 9 10 8 6 3 3 12 16 16 13 16 26 31 34 29
19 24 25 25 22 21 23 13 13 16 19 21 19 17 14 12 10 7 10 8 6 5 4 4 3 3 4 4 3 6 8 7 6 5 8 1 5 6 17 22 29 17 19 23
20 21 23 22 23 21 21 14 16 17 17 19 16 14 13 12 9 6 7 6 5 3 3 9 7 6 7 5 3 2 4 8 5 3 2 13 19 16 12 21 25 14 12 15
20 24 22 20 23 23 19 17 18 16 13 16 17 15 10 9 9 8 8 6 6 7 7 8 4 2 3 3 1 3 5 9 11 5 2 4 7 9 21 25 14 9 8 10
24 23 23 23 18 21 18 18 16 12 14 18 16 12 10 8 9 8 8 8 8 8 9 9 5 4 3 2 2 2 1 5 13 14 5 7 12 19 18 3 6 8 3 3
22 24 20 19 17 17 17 18 17 16 14 16 12 7 8 10 10 7 10 9 7 6 5 5 5 4 3 2 3 1 2 4 5 5 5 5 12 10 2 3 8 6 6 9
20 19 18 18 18 17 17 18 19 18 14 16 12 12 13 13 10 10 9 8 6 4 4 5 4 5 4 5 2 4 1 2 2 3 2 7 8 7 6 5 6 5 7 7
20 20 19 18 17 15 15 19 19 19 15 13 14 15 14 12 11 10 9 10 8 7 6 6 5 4 4 2 4 5 1 4 2 1 2 5 6 5 5 6 9 10 11 10
21 20 19 17 14 13 14 18 18 19 18 14 19 15 12 11 10 8 7 7 7 7 5 4 3 4 3 2 1 5 3 2 3 2 4 4 5 5 6 7 7 8 9 8
20 16 14 14 13 12 14 17 19 16 15 20 21 17 13 11 9 6 5 5 3 3 3 3 4 2 3 0 2 3 6 2 3 4 3 2 3 4 6 7 7 7 6 5
18 12 14 14 13 14 16 20 19 19 8 21 18 13 11 9 8 7 5 5 4 3 4 6 4 5 5 2 1 2 5 4 4 4 3 1 2 3 5 6 5 4 4 6
21 14 14 15 15 15 17 15 18 19 14 17 12 11 11 10 9 7 5 4 5 6 6 9 8 7 6 6 5 2 3 5 3 4 3 4 3 3 4 4 5 5 6 6
20 18 16 16 16 16 12 12 19 18 17 14 7 8 13 10 6 5 4 4 4 5 8 8 8 9 7 5 5 4 4 4 3 2 3 5 5 5 3 3 5 6 6 5
19 20 20 17 16 15 13 13 17 19 17 8 7 9 10 10 6 3 4 5 7 8 9 10 9 10 8 6 7 5 6 5 4 0 4 7 5 3 1 3 5 6 6 7
18 20 18 15 16 15 13 12 13 14 15 11 8 11 8 9 5 3 3 4 4 4 4 7 11 11 11 9 7 5 8 9 5 3 4 6 4 2 1 3 4 5 6 7
19 20 18 19 17 15 10 8 7 7 7 9 11 12 10 7 6 4 3 2 3 3 2 6 4 9 12 13 12 10 9 7 5 7 8 8 5 3 4 2 3 4 4 6
18 16 17 20 14 6 4 8 7 5 6 10 13 12 12 10 8 5 3 3 3 4 3 5 3 3 7 7 8 8 7 9 8 11 10 7 5 3 2 1 3 4 4 5
16 21 14 11 3 4 6 6 6 6 11 10 8 8 9 9 7 4 3 2 3 4 5 3 3 2 5 7 8 7 9 8 8 7 7 5 3 3 2 1 2 3 4 5
21 7 8 4 4 4 6 10 11 13 12 10 8 10 9 7 5 2 2 3 3 2 2 2 1 3 5 7 9 8 7 7 7 6 5 4 3 2 1 1 1 1 3 5
7 6 4 4 7 11 13 13 13 12 11 11 11 11 6 7 2 2 2 2 2 2 4 4 4 6 6 8 9 9 9 8 6 6 5 5 6 6 5 2 1 4 6 9
5 4 6 8 9 11 11 12 11 12 10 10 9 6 4 4 3 2 1 1 1 4 4 1 3 4 5 7 8 9 9 7 7 8 8 8 7 5 2 1 4 6 9 11
4 7 7 8 7 10 10 10 12 11 12 10 6 6 4 4 3 2 2 1 2 1 2 1 3 4 6 7 8 9 8 8 8 9 10 8 5 2 2 4 7 9 11 14
Wind_Direction
244 241 238 237 238 234 221 193 176 176 169 174 189 202 193 231 208 214 129 209 211 174 169 163 158 178 193 210 226 224 227 193 172 260 265 273 254 218 197 192 167 256 291 264
242 234 229 221 210 191 180 166 173 176 174 184 195 190 200 209 207 187 234 181 194 194 223 165 200 199 192 208 224 214 233 151 126 106 134 170 171 145 354 322 284 248 242 250
230 209 200 188 172 163 164 172 182 178 185 183 189 202 197 187 188 191 200 215 243 224 221 226 204 186 183 214 252 264 282 208 185 200 222 250 272 275 288 292 240 261 260 276
210 192 184 164 165 166 171 174 179 186 196 186 182 199 206 206 204 214 231 211 204 201 193 197 197 201 203 222 256 280 297 280 274 275 272 273 275 271 280 280 280 259 277 274
194 188 174 176 181 173 171 174 185 192 192 194 195 193 201 219 223 226 217 217 201 200 209 201 208 215 228 245 257 261 273 268 279 284 286 277 277 277 285 290 297 284 274 276
184 178 176 181 175 181 174 190 189 182 175 188 199 210 210 198 208 198 205 195 187 184 197 215 233 235 243 252 258 264 267 270 286 268 268 298 294 295 296 290 292 305 263 273
175 179 184 182 183 184 195 188 184 204 207 201 203 206 216 207 198 201 180 190 201 195 214 244 237 216 214 203 225 244 255 279 270 277 308 285 297 305 303 302 312 287 255 253
177 175 177 178 182 187 182 207 200 198 197 194 200 200 203 200 199 200 187 183 171 173 168 134 118 115 120 109 129 209 272 248 239 281 242 283 286 276 298 319 315 292 252 243
180 178 179 181 190 193 206 198 187 200 201 181 173 174 185 214 206 183 173 159 140 129 126 136 128 121 145 123 259 285 261 232 222 205 218 249 251 273 305 314 270 273 267 211
179 175 181 190 201 188 185 183 187 201 191 178 174 183 193 190 167 167 155 141 124 130 122 114 107 95 101 68 52 331 279 212 226 233 267 269 288 313 317 213 305 324 343 191
173 183 197 192 183 184 197 193 181 187 194 181 182 187 175 161 151 144 140 127 124 124 136 110 113 103 95 91 109 123 173 206 211 210 232 260 319 331 39 328 342 345 44 81
191 185 171 184 186 191 193 188 188 189 192 175 169 155 158 155 138 121 129 118 132 134 129 139 141 117 93 74 105 55 33 116 214 227 231 328 350 355 337 353 15 49 78 101
175 171 172 179 180 178 180 187 187 183 186 168 170 162 154 146 139 123 116 107 109 134 141 135 140 131 116 120 34 45 62 174 138 66 333 339 17 23 38 72 78 82 92 96
171 165 178 169 165 167 182 186 185 185 184 172 167 169 162 149 145 141 132 129 115 106 141 150 143 155 138 149 158 20 35 189 180 215 304 349 38 61 74 79 89 86 83 86
170 171 156 158 154 168 173 170 173 170 170 172 160 164 168 171 166 163 171 176 176 186 164 163 184 201 189 331 237 340 9 18 230 244 262 357 81 83 80 79 75 76 79 78
182 173 163 156 162 164 165 157 159 162 155 164 152 169 178 194 205 215 219 239 264 240 229 221 230 207 213 212 202 297 3 33 90 128 175 170 107 76 84 85 81 73 60 55
184 172 169 168 168 161 165 162 166 165 162 168 159 167 183 195 211 222 225 243 253 251 244 230 230 223 213 235 229 277 330 31 92 125 151 170 155 125 108 79 51 34 29 27
184 182 176 177 171 167 158 162 171 169 169 167 163 179 187 192 199 222 255 287 269 258 239 231 230 230 213 228 243 234 240 339 26 109 184 174 157 135 108 52 24 13 17 9
178 177 185 174 170 167 167 167 176 182 184 183 191 188 186 196 214 238 288 294 293 278 250 238 232 229 218 215 229 226 241 286 315 213 186 177 164 138 89 351 346 1 15 7
174 173 168 170 171 165 161 159 171 182 193 199 198 189 183 185 192 226 267 279 263 280 257 231 237 242 230 226 236 246 263 279 249 206 212 199 184 212 323 341 358 358 0 358
166 165 166 170 163 158 149 146 148 153 161 187 177 178 176 189 205 215 243 261 259 263 231 199 232 246 237 235 243 252 266 263 240 211 207 193 195 255 290 325 346 357 351 353
157 160 156 150 144 144 149 151 150 148 162 170 184 196 211 212 211 214 266 268 245 235 213 205 238 254 205 206 221 225 237 254 235 207 204 208 202 215 261 310 341 339 352 355
143 137 139 150 138 129 150 158 151 156 158 155 166 179 184 173 187 207 248 257 246 309 206 231 256 200 189 199 209 219 231 217 199 180 186 187 175 198 221 8 3 11 21 1
141 124 133 133 139 142 144 142 145 147 152 154 154 153 159 166 189 240 264 273 298 259 238 246 246 199 200 202 204 208 197 177 161 167 178 180 181 179 163 137 93 21 341 341
123 124 118 140 142 143 147 149 147 154 155 165 156 165 168 182 208 241 274 292 309 292 299 246 210 209 215 203 191 188 178 174 180 183 190 192 184 166 150 134 34 347 331 324
110 113 135 143 147 161 160 160 162 170 166 164 170 176 185 179 210 206 231 255 38 335 347 187 183 193 201 194 189 185 186 195 201 196 187 165 152 150 144 339 320 317 314 312
123 155 150 159 161 153 156 166 186 183 187 180 167 180 176 172 203 207 202 153 284 309 333 169 176 180 187 191 198 201 210 204 193 181 168 168 165 179 267 292 302 305 310 318